TimeCST,TemperatureF,Dew PointF,Humidity,Sea Level PressureIn,VisibilityMPH,Wind Direction,Wind SpeedMPH,Gust SpeedMPH,PrecipitationIn,Events,Conditions,WindDirDegrees,DateUTC
12:09 AM,-7.6,-13.0,77,29.75,10.0,Calm,Calm,-,N/A,,Scattered Clouds,0,2012-12-11 06:09:00
12:30 AM,-7.6,-13.0,77,29.74,10.0,Calm,Calm,-,N/A,,Scattered Clouds,0,2012-12-11 06:30:00
12:50 AM,-5.8,-9.4,84,29.73,10.0,Calm,Calm,-,N/A,,Mostly Cloudy,0,2012-12-11 06:50:00
1:09 AM,-5.8,-9.4,84,29.73,10.0,Calm,Calm,-,N/A,,Overcast,0,2012-12-11 07:09:00
1:30 AM,-5.8,-9.4,84,29.72,10.0,Calm,Calm,-,N/A,,Scattered Clouds,0,2012-12-11 07:30:00
1:50 AM,-5.8,-9.4,84,29.72,10.0,Calm,Calm,-,N/A,,Clear,0,2012-12-11 07:50:00
2:09 AM,-5.8,-9.4,84,29.73,10.0,Calm,Calm,-,N/A,,Mostly Cloudy,0,2012-12-11 08:09:00
2:30 AM,-4.0,-7.6,85,29.72,10.0,Calm,Calm,-,N/A,,Scattered Clouds,0,2012-12-11 08:30:00
2:50 AM,-4.0,-9.4,78,29.72,10.0,Calm,Calm,-,N/A,,Mostly Cloudy,0,2012-12-11 08:50:00
3:09 AM,-4.0,-7.6,85,29.71,10.0,Calm,Calm,-,N/A,,Mostly Cloudy,0,2012-12-11 09:09:00
3:30 AM,-2.2,-7.6,78,29.71,10.0,Calm,Calm,-,N/A,,Mostly Cloudy,0,2012-12-11 09:30:00
3:50 AM,-2.2,-7.6,78,29.70,10.0,Calm,Calm,-,N/A,,Overcast,0,2012-12-11 09:50:00
4:09 AM,-2.2,-7.6,78,29.69,10.0,Calm,Calm,-,N/A,,Mostly Cloudy,0,2012-12-11 10:09:00
4:30 AM,-2.2,-7.6,78,29.69,4.0,Calm,Calm,-,N/A,Snow,Light Snow,0,2012-12-11 10:30:00
4:50 AM,-0.4,-5.8,78,29.68,1.0,Calm,Calm,-,N/A,Snow,Light Snow,0,2012-12-11 10:50:00
5:09 AM,-0.4,-5.8,78,29.68,1.5,Calm,Calm,-,N/A,Snow,Light Snow,0,2012-12-11 11:09:00
5:30 AM,-0.4,-4.0,85,29.68,1.0,Calm,Calm,-,N/A,Snow,Snow,0,2012-12-11 11:30:00
5:49 AM,1.4,-4.0,78,29.69,1.5,Calm,Calm,-,N/A,Snow,Light Snow,0,2012-12-11 11:49:00
6:10 AM,3.2,-0.4,85,29.68,5.0,SW,4.6,-,N/A,Snow,Light Snow,230,2012-12-11 12:10:00
6:30 AM,5.0,1.4,85,29.69,3.0,SW,6.9,-,N/A,Snow,Light Snow,230,2012-12-11 12:30:00
6:49 AM,5.0,1.4,85,29.69,7.0,SW,4.6,-,N/A,Snow,Light Snow,220,2012-12-11 12:49:00
7:10 AM,5.0,1.4,85,29.69,3.0,SW,3.5,-,N/A,Snow,Light Snow,230,2012-12-11 13:10:00
7:30 AM,5.0,1.4,85,29.69,5.0,SW,3.5,-,N/A,Snow,Light Snow,230,2012-12-11 13:30:00
7:49 AM,5.0,1.4,85,29.69,10.0,Calm,Calm,-,N/A,Snow,Light Snow,0,2012-12-11 13:49:00
8:10 AM,5.0,3.2,92,29.69,7.0,WSW,3.5,-,N/A,Snow,Light Snow,250,2012-12-11 14:10:00
8:30 AM,6.8,3.2,85,29.70,5.0,WSW,3.5,-,N/A,Snow,Light Snow,240,2012-12-11 14:30:00
8:49 AM,6.8,3.2,85,29.70,3.0,West,4.6,-,N/A,Snow,Light Snow,260,2012-12-11 14:49:00
9:10 AM,6.8,3.2,85,29.71,2.0,WSW,4.6,-,N/A,Snow,Light Snow,250,2012-12-11 15:10:00
9:30 AM,8.6,3.2,79,29.71,1.5,WSW,3.5,-,N/A,Snow,Light Snow,240,2012-12-11 15:30:00
9:49 AM,8.6,5.0,85,29.71,1.2,Calm,Calm,-,N/A,Snow,Light Snow,0,2012-12-11 15:49:00
10:10 AM,8.6,5.0,85,29.71,1.5,WSW,3.5,-,N/A,Snow,Light Snow,250,2012-12-11 16:10:00
10:29 AM,10.4,6.8,85,29.71,1.2,WSW,4.6,-,N/A,Snow,Light Snow,240,2012-12-11 16:29:00
11:09 AM,10.4,6.8,85,29.72,2.0,West,5.8,-,N/A,Snow,Light Snow,270,2012-12-11 17:09:00
11:29 AM,12.2,8.6,85,29.72,2.0,WSW,6.9,-,N/A,Snow,Light Snow,250,2012-12-11 17:29:00
11:50 AM,12.2,8.6,85,29.72,2.5,WSW,5.8,-,N/A,Snow,Light Snow,250,2012-12-11 17:50:00
12:09 PM,12.2,8.6,85,29.73,4.0,West,4.6,-,N/A,Snow,Light Snow,260,2012-12-11 18:09:00
12:29 PM,12.2,8.6,85,29.73,4.0,WSW,5.8,-,N/A,Snow,Light Snow,250,2012-12-11 18:29:00
12:50 PM,12.2,8.6,85,29.73,2.0,WSW,5.8,-,N/A,Snow,Light Snow,240,2012-12-11 18:50:00
1:09 PM,12.2,8.6,85,29.73,1.2,WSW,4.6,-,N/A,Snow,Light Snow,250,2012-12-11 19:09:00
1:29 PM,14.0,8.6,79,29.73,10.0,West,4.6,-,N/A,,Overcast,280,2012-12-11 19:29:00
1:50 PM,14.0,6.8,73,29.73,10.0,West,9.2,-,N/A,,Overcast,260,2012-12-11 19:50:00
2:09 PM,14.0,8.6,79,29.74,7.0,West,3.5,-,N/A,Snow,Light Snow,270,2012-12-11 20:09:00
2:30 PM,14.0,8.6,79,29.75,7.0,West,11.5,-,N/A,Snow,Light Snow,270,2012-12-11 20:30:00
2:49 PM,-9999,-9999,N/A,-9999,10.0,West,9.2,-,N/A,,Unknown,270,2012-12-11 20:49:00
3:09 PM,14.0,8.6,79,29.76,5.0,West,9.2,-,N/A,Snow,Light Snow,260,2012-12-11 21:09:00
3:30 PM,14.0,8.6,79,29.77,5.0,West,10.4,-,N/A,Snow,Light Snow,260,2012-12-11 21:30:00
3:49 PM,12.2,6.8,79,29.77,10.0,WSW,9.2,-,N/A,,Overcast,250,2012-12-11 21:49:00
4:09 PM,12.2,8.6,85,29.80,4.0,West,5.8,-,N/A,Snow,Light Snow,270,2012-12-11 22:09:00
4:30 PM,12.2,6.8,79,29.81,7.0,West,6.9,-,N/A,Snow,Light Snow,280,2012-12-11 22:30:00
4:49 PM,12.2,6.8,79,29.81,10.0,West,8.1,-,N/A,,Overcast,270,2012-12-11 22:49:00
5:09 PM,12.2,5.0,73,29.82,10.0,WNW,8.1,-,N/A,,Overcast,290,2012-12-11 23:09:00
5:30 PM,12.2,5.0,73,29.83,10.0,West,8.1,-,N/A,,Overcast,270,2012-12-11 23:30:00
5:49 PM,12.2,6.8,79,29.84,10.0,West,4.6,-,N/A,,Overcast,270,2012-12-11 23:49:00
6:09 PM,12.2,6.8,79,29.84,10.0,West,4.6,-,N/A,,Overcast,280,2012-12-12 00:09:00
6:30 PM,10.4,5.0,79,29.84,10.0,Calm,Calm,-,N/A,Snow,Light Snow,0,2012-12-12 00:30:00
6:49 PM,10.4,5.0,79,29.84,7.0,WSW,3.5,-,N/A,Snow,Light Snow,240,2012-12-12 00:49:00
7:09 PM,10.4,5.0,79,29.85,7.0,WSW,3.5,-,N/A,Snow,Light Snow,250,2012-12-12 01:09:00
7:30 PM,10.4,5.0,79,29.85,5.0,West,3.5,-,N/A,Snow,Light Snow,260,2012-12-12 01:30:00
7:49 PM,8.6,5.0,85,29.87,10.0,WSW,4.6,-,N/A,,Overcast,250,2012-12-12 01:49:00
8:09 PM,10.4,5.0,79,29.89,7.0,WSW,6.9,-,N/A,Snow,Light Snow,250,2012-12-12 02:09:00
8:30 PM,10.4,5.0,79,29.89,7.0,West,5.8,-,N/A,Snow,Light Snow,270,2012-12-12 02:30:00
8:49 PM,10.4,5.0,79,29.90,10.0,West,5.8,-,N/A,Snow,Light Snow,280,2012-12-12 02:49:00
9:09 PM,8.6,1.4,73,29.90,7.0,West,6.9,-,N/A,,Mostly Cloudy,280,2012-12-12 03:09:00
9:30 PM,5.0,-0.4,78,29.91,10.0,West,4.6,-,N/A,,Scattered Clouds,270,2012-12-12 03:30:00
9:49 PM,5.0,1.4,85,29.91,10.0,WNW,3.5,-,N/A,,Clear,290,2012-12-12 03:49:00
10:09 PM,3.2,-0.4,85,29.93,5.0,Calm,Calm,-,N/A,Snow,Light Snow,0,2012-12-12 04:09:00
10:30 PM,3.2,-0.4,85,29.93,7.0,Calm,Calm,-,N/A,Snow,Light Snow,0,2012-12-12 04:30:00
10:49 PM,3.2,-0.4,85,29.93,10.0,Calm,Calm,-,N/A,,Clear,0,2012-12-12 04:49:00
11:09 PM,-2.2,-5.8,85,29.93,10.0,Calm,Calm,-,N/A,,Clear,0,2012-12-12 05:09:00
11:30 PM,-2.2,-5.8,85,29.93,10.0,Calm,Calm,-,N/A,,Clear,0,2012-12-12 05:30:00
11:49 PM,-9999,-9999,N/A,-9999,10.0,Calm,Calm,-,N/A,,Unknown,0,2012-12-12 05:49:00